FORMOSAT-5 (42920 NORAD) Tracking and Keplerian Element Data

This shows tracking and keplerian element data for the satellite.

Feedback or suggestion? Click here.




ElementValue
Catalog42920
NameFORMOSAT-5
Epoch Orbit13810
Epoch Day94.20033477
Epoch Year2020
RAAN174.1658
Inclination98.3021
Eccentricity0.0010235
Argument of Perigee194.9897
Mean Anonmoly165.1003
Mean Motion14.50847384
Decay Rate-3.3E-07
L11 42920U 17049A 20094.20033477 -.00000033 00000-0 29288-5 0 9990
L22 42920 98.3021 174.1658 0010235 194.9897 165.1003 14.50847384138105

Live tracking and technical data element details for FORMOSAT-5 (NORAD 42920). FORMOSAT-5 can be tracked NOW for your location showing map with azimuth and elevation plus other details from your city location.

Track the satellite on the map from your city or location and see movement details for azimuth, elevation, latitude, longitude, range, height, and movement on the map or in text.







IsCatalogInMostPopularTable: catalog: 42920, numindb: 407
Update: records affected: 1



GetName: 42920 FORMOSAT-5

Hit Count: updated at: Thu, 09 Apr 2020 15:57:12 GMT